Regional Weather Roundup
Issued by NWS Charleston, SC

Current Version | Previous Version | Graphics & Text | Print | Product List | Glossary On
Versions: 1 2 3 4 5 6 7 8 9 10 11 12 13 14 15 16 17 18 19 20 21 22 23 24 25 26 27 28 29 30 31 32 33 34 35 36 37 38 39 40 41 42 43 44 45 46 47 48 49 50
000
ASUS42 KCHS 251012
RWRCHS

REGIONAL WEATHER ROUNDUP
NATIONAL WEATHER SERVICE CHARLESTON SC
600 AM EDT SUN JUN 25 2017

NOTE: "FAIR" INDICATES FEW OR NO CLOUDS BELOW 12,000 FEET WITH NO
SIGNIFICANT WEATHER AND/OR OBSTRUCTIONS TO VISIBILITY.

NOT ALL STATIONS ARE QUALITY CONTROLLED. USE DATA WITH CAUTION...
ESPECIALLY DEWPOINT OBSERVATIONS.

SCZ027-030-031-034>040-042>050-251100-
...SOUTHEAST SOUTH CAROLINA...

CITY           SKY/WX    TMP DP  RH WIND       PRES   REMARKS
N CHARLESTON   PTCLDY    77  73  87 NW7       30.04R
WATERFRONT PRK   N/A     79  77  94 VRB3      30.01R
JOHNS ISLAND   FAIR      79  77  94 CALM      30.03R
PINOPOLIS        N/A     77  75  94 W8        29.97R
MONCKS CORNER  FAIR      73  72  94 CALM      30.04S
SUMMERVILLE    FAIR      73  72  94 CALM      30.05S
BEAUFORT MCAS  CLEAR     76  76 100 CALM      30.04R
BEAUFORT ARPT  FAIR      75  73  94 CALM      30.03R
HILTON HEAD IS NOT AVBL
WALTERBORO     PTSUNNY   73  72  94 CALM      30.05S
ALLENDALE      PTSUNNY   75  73  94 CALM      30.04F

...SOUTHERN MIDLANDS AND PEE DEE...

CITY           SKY/WX    TMP DP  RH WIND       PRES   REMARKS
GEORGETOWN     PTSUNNY   75  73  94 W5        30.04R
KINGSTREE      PTSUNNY   72  72 100 CALM      30.04R
ORANGEBURG     CLOUDY    74  73  97 CALM      30.05R
BARNWELL       FAIR      75  75 100 CALM      30.06R
AIKEN          FAIR      70  70 100 CALM      30.10R
MANNING        FAIR      73  73 100 W6        30.04R
COLUMBIA       CLOUDY    73  70  90 SW3       30.04R
SUMTER         CLOUDY    74  72  94 SW3       30.02R
FLORENCE       CLOUDY    75  74  96 SW5       30.03R
MYRTLE BEACH   NOT AVBL
N MYRTLE BEACH CLOUDY    76  74  93 VRB5      30.02R

$$

GAZ063-065-086>088-099>101-113>116-118-119-134>141-150-251100-
...SOUTHEAST GEORGIA...

CITY           SKY/WX    TMP DP  RH WIND       PRES   REMARKS
SAVANNAH ARPT  PTCLDY    77  72  84 CALM      30.05R
HUNTER AAF     CLEAR     76  74  95 CALM      30.02S
FORT STEWART   CLEAR     74  72  93 CALM      30.02S
STATESBORO     CLOUDY    76  32  19 CALM      30.04F
SYLVANIA       DRIZZLE   76  76 100 CALM      30.05F
CLAXTON        FAIR      74  73  98 CALM      30.04F

...CSRA...CENTRAL AND FAR SOUTHEAST GEORGIA...

CITY           SKY/WX    TMP DP  RH WIND       PRES   REMARKS
THOMSON        CLOUDY    70  69  97 CALM      30.12R
AUGUSTA-BUSH   CLOUDY    74  72  93 NW3       30.05R
AUGUSTA-DANIEL PTCLDY    74  67  78 CALM      30.07R
SWAINSBORO     CLOUDY    73  73 100 CALM      30.05S
VIDALIA        CLEAR     75  73  94 CALM      30.05S
EASTMAN        CLOUDY    77  77 100 SE6       30.07F
HAZLEHURST       N/A     77  77 100 CALM      30.05S
ALMA           CLEAR     75  73  93 CALM      30.05S
WAYCROSS       MOCLDY    77  77 100 CALM      30.07R
JESUP          FAIR      72  68  88 SW3       30.06S
BAXLEY         FAIR      73  73 100 CALM      30.05S
BRUNSWICK      CLEAR     73  73 100 SW6       30.07R
SAINT SIMONS   CLEAR     78  75  90 SW6       30.06R

$$

SCZ027-028-034-036>038-045-046-048>050-GAZ119-141-251100-
...LAKE AND SUPPLEMENTAL COASTAL OBSERVATIONS...

STATION/POSITION TIME  TEMP    WIND        PRES    WAVE   SWELL
                       AIR SEA DIR/SP/G            HT/PER HT/PER/DIR
                 (UTC) (F)     (DEG/KT/KT) (MB)    (FT/S) (FT/S/D)
WINYAH BAY       NOT AVBL
LAKE MURRAY      0920   74     270/  4/  6 1016.3
ACE BASIN NERRS  0845   76        CALM     1017.0
FORT PULASKI     0948          250/  3/  5   N/A
SAPELO ISLAND    0900   79        CALM     1017.0

$$

ANZ835-935-AMZ111-154-330-350-352-354-370-450-454-472-251100-
...C-MAN AND BUOY OBSERVATIONS...

STATION/POSITION TIME  TEMP    WIND        PRES    WAVE   SWELL
                       AIR SEA DIR/SP/G            HT/PER HT/PER/DIR
                 (UTC) (F)     (DEG/KT/KT) (MB)    (FT/S) (FT/S/D)
BUOY 41004       0950   80 80  230/ 16/ 17 1016.6F   4/ 5   2/130/ 7
BUOY 41008       0950   81 82  210/ 10/ 12 1017.3R   3/ 5   2/150/ 5
FOLLY BEACH CMAN 0900   81     210/ 14/ 15 1016.9F
CAPERS NEARSHORE 0908   85 83  220/ 14/ 19 1016.2F
FRIPP NEARSHORE  0908   82 84  250/  8/ 10 1016.4F


STATION/POSITION TIME  TEMP    WIND        PRES    WAVE   SWELL
                       AIR SEA DIR/SP/G            HT/PER HT/PER/DIR
                 (UTC) (F)     (DEG/KT/KT) (MB)    (FT/S) (FT/S/D)
5E ST. MARYS GA  0930      80                N/A     3/ 5
FRYING PAN BUOY  0950   80 80  230/ 16/ 19 1016.8R   5/ 5   2/130/ 8
BUOY 41025       0950   79 80  240/ 19/ 23 1015.9R   6/ 7
CAPE LOOKOUT NC  0900   78     220/ 10/ 12 1015.9R
BUOY 41002       0850   80 80  210/ 14/ 16 1018.9    5/ 5   2/100/ 8
BUOY 41010       0950   82 83  180/ 12/ 14 1019.4R   4/ 8   2/120/ 8
ST AUGUSTINE FL  1000   77 76  260/  3/  5 1019.1R


$$




USA.gov is the U.S. government's official web portal to all federal, state and local government web resources and services.